Location: STAR School
(35.3054°N, 111.2976°W)
Time: 05:46:22
(UTC-07:00)

EO-88 - Visible Passes

Search period start: 24 April 2019 00:00
Search period end: 04 May 2019 00:00
Orbit: 485 x 494 km, 97.4° (Epoch: 23 April)

Date Brightness Start Highest point End Pass type
(mag) Time Alt. Az. Time Alt. Az. Time Alt. Az.
24 Apr ? 21:40:56 14° N 21:40:56 14° N 21:41:36 10° N visible
25 Apr ? 21:17:49 12° NNE 21:17:49 12° NNE 21:18:10 10° NNE visible
26 Apr ? 22:29:10 12° NNW 22:29:10 12° NNW 22:29:32 10° NNW visible
27 Apr ? 22:06:02 16° N 22:06:02 16° N 22:06:54 10° N visible
28 Apr ? 21:42:55 17° NNE 21:42:55 17° NNE 21:43:55 10° N visible
29 Apr ? 21:19:48 14° NNE 21:19:48 14° NNE 21:20:33 10° NNE visible
30 Apr ? 22:31:08 14° NNW 22:31:08 14° NNW 22:31:46 10° NNW visible
01 May ? 22:08:01 19° NNW 22:08:01 19° NNW 22:09:09 10° NNW visible
02 May ? 21:44:53 20° NNE 21:44:53 20° NNE 21:46:12 10° N visible
03 May ? 21:21:45 16° NE 21:21:45 16° NE 21:22:52 10° NNE visible
